Regional Weather Roundup
Issued by NWS

Home | Current Version | Previous Version | Graphics & Text | Print | Product List | Glossary On
Versions: 1 2 3 4 5 6 7 8 9 10 11 12 13 14 15 16 17 18 19 20 21 22 23 24 25 26 27 28 29 30 31 32 33 34 35 36 37 38 39 40 41 42 43 44 45 46 47 48 49 50
000
ASUS43 KDMX 102308
RWRIA

WEATHER ROUNDUP FOR IOWA
NATIONAL WEATHER SERVICE DES MOINES IA
500 PM CST WED FEB 10 2016

NOTE: "FAIR" INDICATES FEW OR NO CLOUDS BELOW 12,000 FEET WITH NO
SIGNIFICANT WEATHER AND/OR OBSTRUCTIONS TO VISIBILITY.

* - THESE STATIONS ARE NOT NWS STATIONS...THUS NOT UNDER NWS
QUALITY CONTROL.  THEY ALSO DO NOT REPORT WEATHER SUCH
AS PRECIPITATION OR FOG.

IAZ001>003-012>014-020>022-031>034-043>046-110000-
   NORTHWEST IOWA

CITY           SKY/WX    TMP DP  RH WIND       PRES   REMARKS
CARROLL *      CLOUDY    18  14  86 E14       30.04R WCI   4
CHEROKEE *     CLOUDY    16  14  93 E10       30.05R WCI   3
DENISON *      CLOUDY    19  16  86 E14G20    30.00R WCI   6
LE MARS *      CLOUDY    18  16  93 E13G20    30.05R WCI   4
ORANGE CITY *  CLOUDY    16  12  86 E13       30.03R WCI   2
SHELDON *        N/A     14  10  85 E14G20    30.04R WCI  -1
SIOUX CITY     CLOUDY    23  16  74 E12       30.02R WCI  12
SPENCER        CLOUDY    14   7  73 E13       30.07R WCI   0
STORM LAKE *   LGT SNOW  14  12  92 E15       30.03R WCI  -1
$$

IAZ055>058-069>071-079>083-090>094-110000-
   SOUTHWEST IOWA

CITY           SKY/WX    TMP DP  RH WIND       PRES   REMARKS
ATLANTIC *     CLOUDY    25  19  80 E13G18    29.98R WCI  13
AUDUBON *      PTCLDY    19  16  86 E14       30.01R WCI   6
CLARINDA *     CLEAR     39  23  52 E6        29.97R WCI  35
COUNCIL BLFS * CLEAR     34  23  64 NE8       29.95R WCI  27
CRESTON *      CLOUDY    25  19  80 E17       30.00R WCI  11
HARLAN  *      CLOUDY    23  19  86 E9        30.03R WCI  13
LAMONI         CLOUDY    26  20  77 E7        30.00R WCI  18
RED OAK *      CLEAR     37  23  56 E9        29.96R WCI  31
SHENANDOAH *   CLEAR     41  25  52 E7        29.96R
$$

IAZ047>049-059>061-072>074-084-110000-
   CENTRAL IOWA

CITY           SKY/WX    TMP DP  RH WIND       PRES   REMARKS
AMES           CLOUDY    16  10  77 E8        30.08R WCI   5
ANKENY *       CLOUDY    18  14  86 E8        30.08R WCI   7
BOONE *        CLOUDY    16  10  79 E12       30.05R WCI   3
CHARITON *     CLOUDY    21  16  79 E12       30.04S WCI   9
DES MOINES     FLURRIES  19  12  74 E10       30.07R WCI   7
GRINNELL*      CLOUDY    16  10  79 E7        30.09R WCI   6
KNOXVILLE *    CLOUDY    19  12  73 E8        30.06R WCI   9
MARSHALLTOWN   CLOUDY    13   7  77 E3        30.08R
NEWTON *       FLURRIES  18  12  79 E9        30.08R WCI   6
PELLA *        FLURRIES  19  14  79 E3        30.09R
$$

IAZ004>006-015-016-023>025-035-036-110000-
   NORTH CENTRAL IOWA

CITY           SKY/WX    TMP DP  RH WIND       PRES   REMARKS
ALGONA *       CLOUDY    12   9  85 E8        30.07R WCI   1
CLARION *      CLOUDY    12   5  73 E10       30.08R WCI  -1
ESTHERVILLE    CLOUDY    11   6  81 E9        30.07R WCI  -2
FORT DODGE *   CLOUDY    12   5  73 E10       30.08R WCI  -1
MASON CITY     PTCLDY    10   1  67 NE7       30.10R WCI  -1
FOREST CITY *  PTCLDY    12   1  62 NE3       30.08R
WEBSTER CITY * CLOUDY    14   9  79 E10       30.06R WCI   1
IOWA FALLS *   CLOUDY    14   7  73 NE6       30.09R WCI   5
$$

IAZ007>011-017>019-026>030-037>042-050>054-066-110000-
   NORTHEAST IOWA

CITY           SKY/WX    TMP DP  RH WIND       PRES   REMARKS
CEDAR RAPIDS   CLOUDY    16   4  59 NW7       30.08R WCI   6
CHARLES CITY * CLOUDY    10  -2  56 N7        30.09R WCI   0
CLINTON *      PTCLDY    17   3  54 NW8       30.09R WCI   7
DECORAH *      CLOUDY    10  -4  52 N7        30.07R WCI   0
DUBUQUE        CLOUDY    13   0  56 NW8       30.06R WCI   2
MONTICELLO *   CLOUDY    14   3  62 W6        30.09R WCI   5
OELWEIN *      PTCLDY    12   0  57 N9        30.09R WCI   0
WATERLOO       PTCLDY    13  -1  54 NE5       30.10R WCI   5
$$

IAZ064-065-067-068-078-110000-
   EAST CENTRAL IOWA

CITY           SKY/WX    TMP DP  RH WIND       PRES   REMARKS
DAVENPORT      PTCLDY    18   1  47 NW8       30.09R WCI   8
IOWA CITY      CLOUDY    18   2  49 CALM      30.12R
MT. PLEASANT * LGT SNOW  21  16  79 CALM      30.11R
MUSCATINE *    CLOUDY    19   1  45 NW6       30.12R WCI  11
QUAD CITIES    CLOUDY    19   2  47 NW8       30.10R WCI   9
$$

IAZ062-063-075>077-085>089-095>099-110000-
   SOUTHEAST IOWA

CITY           SKY/WX    TMP DP  RH WIND       PRES   REMARKS
BURLINGTON     CLOUDY    18  13  80 S3        30.10R
FAIRFIELD *    CLOUDY    18  10  73 CALM      30.10R
FORT MADISON * FLURRIES  18  14  86 CALM      30.11R
KEOKUK *       CLOUDY    19  14  79 CALM      30.10R
OSKALOOSA *    CLOUDY    19  14  79 E7        30.08S WCI  10
CENTERVILLE *  CLOUDY    19  18  93 CALM      30.07R
OTTUMWA        CLOUDY    18  14  84 E6        30.08R WCI  10
WASHINGTON *   CLOUDY    18  10  73 CALM      30.12R
$$

ABBREVIATIONS USED IN REMARKS
   TC - TEMPERATURES IN CELSIUS
  WCI - WIND CHILL INDEX
   HX - HEAT INDEX
  VSB - VISIBILITY
$$




USA.gov is the U.S. government's official web portal to all federal, state and local government web resources and services.